[[[{"header":{"parameterUnit":"kt","parameterCategory":2,"dx":1,"dy":1,"la1":30.253999710083008,"la2":30.299108505249023,"lo1":-89.0895004272461,"lo2":-89.04439544677734,"nx":28,"ny":28,"refTime":"2022-10-07T21:00:00:Z","depth":0,"parameterNumber":1,"parameterNumberName":"U-component_of_WINDS"},"data":[-3.3811,-3.3812,-3.3767,-3.3746,-3.3701,-3.3679,-3.3655,-3.362,-3.358,-3.3546,-3.3518,-3.347,-3.3409,-3.3363,-3.3329,-3.3307,-3.3297,-3.3333,-3.3301,-3.3184,-3.3165,-3.3146,-3.3144,-3.3331,-3.3331,-3.3429,-3.343,-3.3431,-3.3735,-3.3691,-3.3666,-3.3611,-3.3589,-3.3527,-3.3477,-3.3462,-3.3443,-3.3392,-3.3361,-3.3327,-3.3292,-3.3216,-3.3175,-3.3173,-3.314,-3.3165,-3.3165,-3.3156,-3.3029,-3.3028,-3.3193,-3.3193,-3.3193,-3.3193,-3.3193,-3.3193,-3.3584,-3.3586,-3.3525,-3.3496,-3.3455,-3.3417,-3.341,-3.335,-3.3324,-3.3275,-3.3222,-3.3198,-3.3136,-3.306,-3.3021,-3.3,-3.2963,-3.2974,-3.2977,-3.2982,-3.2995,-3.2864,-3.299,-3.2989,-3.2989,-3.2988,-3.2988,0,-3.3458,-3.3419,-3.3391,-3.335,-3.3326,-3.3288,-3.3245,-3.3239,-3.3135,-3.3117,-3.3086,-3.306,-3.3007,-3.2971,-3.292,-3.2875,-3.2807,-3.2793,-3.2801,-3.2828,-3.2861,-3.2845,-3.2643,-3.2789,-3.2787,-3.2786,-3.2785,-3.2784,-3.3304,-3.331,-3.3221,-3.3208,-3.3172,-3.3151,-3.3128,-3.3035,-3.3015,-3.2946,-3.2951,-3.2914,-3.288,-3.2836,-3.2761,-3.2721,-3.2686,-3.2748,-3.2679,-3.2706,-3.2689,-3.269,-3.2691,-3.2764,-3.2766,-3.2769,-3.277,0,-3.3221,-3.3142,-3.3136,-3.3045,-3.3023,-3.3034,-3.2955,-3.2952,-3.2891,-3.2878,-3.2869,-3.2774,-3.2744,-3.2658,-3.2605,-3.2561,-3.2578,-3.2545,-3.26,-3.2589,-3.2638,-3.2635,-3.2804,-3.2822,-3.2626,-3.2628,-3.2629,0,-3.3058,-3.3069,-3.295,-3.2951,-3.296,-3.2866,-3.2878,-3.2827,-3.277,-3.2759,-3.2666,-3.2657,-3.2547,-3.2526,-3.246,-3.2459,-3.2447,-3.2414,-3.2397,-3.2423,-3.2428,-3.241,-3.2401,-3.2355,-3.2354,-3.2353,-3.2353,0,-3.2939,-3.2886,-3.2886,-3.2861,-3.2763,-3.2765,-3.2724,-3.2659,-3.2637,-3.2593,-3.2577,-3.2532,-3.2508,-3.2474,-3.2391,-3.2348,-3.2386,-3.2309,-3.2352,-3.2354,-3.2364,-3.2365,-3.2537,-3.2352,-3.2351,-3.2351,-3.2351,0,-3.2794,-3.2753,-3.2764,-3.2681,-3.2671,-3.267,-3.262,-3.2599,-3.2537,-3.2496,-3.246,-3.2387,-3.2377,-3.2307,-3.2292,-3.226,-3.2241,-3.2207,-3.2208,-3.2202,-3.2127,-3.2237,-3.2408,-3.2423,-3.2198,-3.2196,-3.2195,0,-3.268,-3.2669,-3.2587,-3.2599,-3.2582,-3.248,-3.2476,-3.2423,-3.2368,-3.2344,-3.2282,-3.2255,-3.2184,-3.2163,-3.2167,-3.2101,-3.2143,-3.2092,-3.2059,-3.2059,-3.2081,-3.2237,-3.2285,-3.238,-3.2177,-3.2179,-3.218,0,-3.2581,-3.2461,-3.2469,-3.2436,-3.235,-3.2334,-3.233,-3.2283,-3.2272,-3.2221,-3.2215,-3.2173,-3.2118,-3.2084,-3.2019,-3.2027,-3.2112,-3.1967,-3.1963,-3.1997,-3.216,-3.2206,-3.2222,-3.2066,-3.2068,-3.2069,-3.2166,0,-3.2384,-3.2366,-3.2383,-3.2312,-3.2285,-3.2286,-3.2194,-3.2178,-3.2119,-3.206,-3.2048,-3.1978,-3.1927,-3.1921,-3.1861,-3.1908,-3.1886,-3.1827,-3.1753,-3.1856,-3.1885,-3.1897,-3.1717,-3.1714,-3.1712,-3.171,0,0,-3.2295,-3.2267,-3.2175,-3.2168,-3.214,-3.2032,-3.2041,-3.2001,-3.1921,-3.1904,-3.1862,-3.1793,-3.1737,-3.1732,-3.1757,-3.1735,-3.1735,-3.1702,-3.1807,-3.1818,-3.1828,-3.1862,-3.1876,-3.1705,-3.1705,-3.1704,-3.1703,0,-3.2204,-3.2152,-3.2163,-3.2117,-3.2046,-3.1982,-3.1985,-3.1894,-3.1856,-3.1842,-3.1752,-3.1733,-3.1678,-3.1632,-3.1602,-3.1701,-3.1632,-3.1691,-3.1777,-3.1787,-3.1801,-3.1814,-3.185,-3.1864,-3.1697,-3.1698,-3.1698,0,-3.2091,-3.2025,-3.202,-3.195,-3.1901,-3.1884,-3.1784,-3.177,-3.1756,-3.1634,-3.1622,-3.1571,-3.15,-3.1507,-3.1505,-3.1466,-3.1544,-3.1501,-3.1513,-3.1511,-3.1515,-3.1533,-3.1548,-3.1344,-3.1343,-3.1343,0,0,-3.2024,-3.2006,-3.1904,-3.1923,-3.1899,-3.1803,-3.1783,-3.1721,-3.1661,-3.1637,-3.1569,-3.1512,-3.1479,-3.146,-3.1424,-3.1444,-3.1421,-3.1462,-3.1478,-3.1492,-3.1498,-3.1506,-3.1523,-3.1339,-3.1339,-3.1339,0,0,-3.1991,-3.1875,-3.1825,-3.1835,-3.1782,-3.1681,-3.1696,-3.1632,-3.159,-3.1579,-3.1471,-3.1451,-3.1455,-3.1406,-3.1376,-3.1395,-3.1323,-3.1328,-3.1427,-3.1446,-3.1462,-3.1474,-3.1261,0,0,0,0,0,-3.185,-3.1889,-3.1846,-3.1834,-3.1742,-3.1706,-3.1694,-3.1607,-3.1559,-3.1572,-3.1505,-3.1432,-3.1368,-3.1338,-3.1327,-3.1362,-3.1299,-3.1306,-3.1313,-3.1444,-3.1465,-3.1484,0,0,0,0,0,0,-3.1844,-3.1829,-3.1844,-3.1747,-3.1726,-3.1704,-3.1603,-3.158,-3.1555,-3.1541,-3.1447,-3.1429,-3.1352,-3.1338,-3.1329,-3.1364,-3.1264,-3.1302,-3.1308,-3.1313,-3.1451,-3.1469,-3.1484,0,0,0,0,0,-3.1839,-3.1827,-3.1704,-3.1746,-3.1727,-3.1621,-3.1601,-3.1581,-3.1559,-3.1454,-3.1433,-3.1496,-3.1356,-3.1342,-3.1332,-3.137,-3.127,-3.1267,-3.1306,-3.1311,-3.1315,-3.146,0,0,0,0,0,0,-3.1836,-3.1808,-3.1699,-3.169,-3.1724,-3.162,-3.1601,-3.1582,-3.1472,-3.1452,-3.1497,-3.1488,-3.1358,-3.1347,-3.1337,-3.1378,-3.1274,-3.1271,-3.1269,-3.131,-3.1313,-3.1317,0,0,0,0,0,0,-3.1814,-3.1801,-3.1694,-3.1671,-3.1659,-3.162,-3.1603,-3.1581,-3.1472,-3.1521,-3.151,-3.1495,-3.1373,-3.1351,-3.1343,-3.1312,-3.1278,-3.1275,-3.1273,-3.1271,-3.1313,-3.1316,0,0,0,0,0,0,-3.1807,-3.1796,-3.1673,-3.1664,-3.1652,-3.1545,-3.1599,-3.151,-3.1455,-3.1527,-3.1447,-3.1444,-3.1379,-3.1369,-3.1348,-3.1321,-3.1314,-3.1278,-3.1276,-3.1274,-3.1273,0,0,0,0,0,0,0,-3.1801,-3.1895,-3.1752,-3.1657,-3.1647,-3.1607,-3.1604,-3.1602,-3.1454,-3.1451,-3.1448,-3.1445,-3.1295,-3.1291,-3.1288,-3.1328,0,0,-3.1278,-3.1277,0,0,0,0,0,0,0,0,-3.1898,-3.1896,-3.1752,-3.175,-3.1748,-3.1606,-3.1604,-3.1602,-3.1454,-3.1451,-3.1449,-3.1447,-3.1294,-3.1291,-3.1289,0,0,0,0,0,0,0,0,0,0,0,0,0,0,0,-3.1752,-3.175,0,-3.1606,-3.1604,-3.1603,-3.1453,-3.1451,-3.1449,-3.1447,-3.1293,-3.1291,-3.1289,0,0,0,0,0,0,0,0,0,0,0,0,0,0,0,0,0,0,0,0,0,0,0,0,0,0,0,0,0,0,0,0,0,0,0,0,0,0,0,0,0,0,0,0,0,0,0,0,0,0,0,0,0,0,0,0,0,0,0,0,0,0,0,0,0,0,0,0,0]}],[{"header":{"parameterUnit":"kt","parameterCategory":2,"dx":1,"dy":1,"la1":30.253999710083008,"la2":30.299108505249023,"lo1":-89.0895004272461,"lo2":-89.04439544677734,"nx":28,"ny":28,"refTime":"2022-10-07T21:00:00:Z","depth":0,"parameterNumber":2,"parameterNumberName":"V-component_of_WINDS"},"data":[-9.0417,-9.0528,-9.053,-9.0655,-9.0676,-9.0761,-9.0791,-9.0829,-9.0858,-9.0955,-9.1011,-9.1019,-9.1044,-9.1107,-9.1164,-9.1165,-9.1189,-9.1229,-9.1223,-9.1048,-9.1023,-9.0999,-9.0975,-9.1235,-9.1235,-9.1406,-9.1407,-9.1409,-9.0291,-9.0315,-9.0382,-9.0447,-9.0503,-9.0466,-9.0512,-9.056,-9.0635,-9.0671,-9.0725,-9.0809,-9.0874,-9.0885,-9.0945,-9.0993,-9.0977,-9.101,-9.1006,-9.101,-9.0822,-9.0796,-9.1022,-9.1022,-9.1022,-9.1022,-9.1022,-9.1022,-9.0061,-9.0127,-9.0167,-9.0239,-9.0271,-9.0313,-9.0375,-9.0385,-9.0447,-9.0513,-9.0498,-9.0581,-9.0613,-9.0683,-9.0705,-9.0767,-9.0729,-9.0763,-9.0772,-9.0781,-9.0792,-9.0547,-9.0777,-9.0776,-9.0776,-9.0775,-9.0775,0,-8.9892,-8.9889,-8.9952,-9.0017,-9.0068,-9.0116,-9.016,-9.0197,-9.0183,-9.0234,-9.0308,-9.0349,-9.0428,-9.0495,-9.0549,-9.0564,-9.0525,-9.052,-9.0544,-9.0553,-9.0556,-9.0556,-9.025,-9.0513,-9.0511,-9.0509,-9.0508,-9.0507,-8.9661,-8.9737,-8.9778,-8.9822,-8.9846,-8.9917,-8.9958,-8.994,-8.9984,-9.0031,-9.0088,-9.0155,-9.0207,-9.0321,-9.0325,-9.0383,-9.0364,-9.0465,-9.0372,-9.0379,-9.0365,-9.0361,-9.0368,-9.0483,-9.0486,-9.0488,-9.0491,0,-8.953,-8.9529,-8.9647,-8.9678,-8.9687,-8.9767,-8.9791,-8.9854,-8.9855,-8.994,-8.9959,-8.9959,-9.0028,-9.0017,-9.0092,-9.0083,-9.0211,-9.0191,-9.02,-9.0195,-9.0285,-9.0277,-9.0576,-9.0614,-9.0344,-9.0347,-9.0349,0,-8.9331,-8.9431,-8.9424,-8.9492,-8.9602,-8.9582,-8.969,-8.9701,-8.973,-8.9797,-8.9752,-8.9816,-8.979,-8.9851,-8.9838,-8.9939,-8.9953,-8.9952,-8.9947,-8.9956,-8.9956,-8.9976,-8.9964,-8.9933,-8.9932,-8.993,-8.9929,0,-8.9127,-8.9239,-8.935,-8.9375,-8.9415,-8.9467,-8.9485,-8.9516,-8.9555,-8.9604,-8.9628,-8.9685,-8.9716,-8.9759,-8.9742,-8.968,-8.9866,-8.9776,-8.9864,-8.9865,-8.9905,-8.9903,-9.0172,-8.9927,-8.9927,-8.9926,-8.9926,0,-8.8965,-8.9019,-8.918,-8.9212,-8.9242,-8.9314,-8.937,-8.9429,-8.9464,-8.9461,-8.9498,-8.9466,-8.9554,-8.9466,-8.9586,-8.9509,-8.9542,-8.9548,-8.9554,-8.956,-8.9462,-8.9616,-8.9874,-8.99,-8.9568,-8.9565,-8.9562,0,-8.8731,-8.8893,-8.8877,-8.9028,-8.9101,-8.9048,-8.9126,-8.9159,-8.9162,-8.9221,-8.9222,-8.9289,-8.9221,-8.924,-8.9301,-8.9304,-8.9403,-8.929,-8.9372,-8.9375,-8.9366,-8.9603,-8.9645,-8.9819,-8.9524,-8.9528,-8.953,0,-8.855,-8.86,-8.8628,-8.8655,-8.8697,-8.8756,-8.8846,-8.8909,-8.895,-8.8991,-8.9064,-8.9157,-8.9109,-8.914,-8.9119,-8.9183,-8.9335,-8.9122,-8.9122,-8.9161,-8.9503,-8.9542,-8.9572,-8.9306,-8.9311,-8.9314,-8.95,0,-8.8306,-8.8386,-8.8462,-8.8523,-8.8567,-8.8661,-8.8651,-8.8698,-8.8674,-8.8675,-8.8782,-8.8802,-8.8862,-8.8891,-8.8867,-8.9019,-8.8991,-8.8938,-8.885,-8.9007,-8.9067,-8.9092,-8.8762,-8.8759,-8.8757,-8.8755,0,0,-8.8083,-8.8197,-8.8175,-8.8263,-8.8298,-8.824,-8.8341,-8.8368,-8.8424,-8.8449,-8.84,-8.8534,-8.8552,-8.8682,-8.873,-8.8754,-8.8779,-8.8724,-8.8933,-8.8953,-8.8971,-8.9036,-8.9062,-8.8751,-8.875,-8.8749,-8.8748,0,-8.7992,-8.8018,-8.8119,-8.8148,-8.8188,-8.8184,-8.8209,-8.8237,-8.8242,-8.8347,-8.8294,-8.8356,-8.8462,-8.8488,-8.8516,-8.8709,-8.8664,-8.8728,-8.8837,-8.891,-8.8933,-8.8954,-8.9022,-8.9048,-8.8743,-8.8743,-8.8743,0,-8.7811,-8.7834,-8.7882,-8.7962,-8.7987,-8.8062,-8.7969,-8.8051,-8.8105,-8.8032,-8.8136,-8.8146,-8.8179,-8.8304,-8.8359,-8.8315,-8.856,-8.848,-8.8494,-8.8499,-8.8568,-8.8596,-8.8621,-8.8297,-8.8295,-8.8294,0,0,-8.7733,-8.7807,-8.7824,-8.7941,-8.7961,-8.7956,-8.7994,-8.7974,-8.8007,-8.8021,-8.8031,-8.8063,-8.8124,-8.8165,-8.8221,-8.836,-8.8364,-8.8426,-8.8447,-8.8464,-8.8479,-8.8553,-8.858,-8.8289,-8.8288,-8.8288,0,0,-8.7694,-8.7721,-8.7692,-8.7827,-8.7863,-8.7884,-8.7955,-8.7919,-8.7969,-8.7957,-8.7923,-8.793,-8.8046,-8.8056,-8.7983,-8.8189,-8.8103,-8.812,-8.8179,-8.8205,-8.8226,-8.822,-8.7887,0,0,0,0,0,-8.7596,-8.7718,-8.7691,-8.7713,-8.7811,-8.79,-8.7912,-8.7889,-8.7829,-8.7886,-8.7889,-8.7838,-8.801,-8.7945,-8.7964,-8.8045,-8.8216,-8.8229,-8.8241,-8.835,-8.8377,-8.8401,0,0,0,0,0,0,-8.7604,-8.763,-8.7688,-8.7716,-8.7738,-8.7895,-8.7789,-8.7786,-8.7823,-8.7812,-8.784,-8.7839,-8.7819,-8.7933,-8.7951,-8.8029,-8.7881,-8.8221,-8.8232,-8.8242,-8.8359,-8.8382,-8.8401,0,0,0,0,0,-8.761,-8.7631,-8.7795,-8.7714,-8.7733,-8.7732,-8.7784,-8.7781,-8.7808,-8.7813,-8.7811,-8.7788,-8.7822,-8.7835,-8.7944,-8.8021,-8.7868,-8.7875,-8.8228,-8.8237,-8.8245,-8.837,0,0,0,0,0,0,-8.7615,-8.7627,-8.7798,-8.7803,-8.7666,-8.7723,-8.7731,-8.7777,-8.7806,-8.7806,-8.7759,-8.775,-8.7825,-8.7835,-8.7846,-8.802,-8.7858,-8.7865,-8.7869,-8.8235,-8.8242,-8.8248,0,0,0,0,0,0,-8.7616,-8.7632,-8.7801,-8.7742,-8.774,-8.7714,-8.7722,-8.7809,-8.7807,-8.775,-8.7744,-8.7754,-8.7808,-8.7836,-8.7844,-8.7981,-8.785,-8.7857,-8.7861,-8.7864,-8.824,-8.8246,0,0,0,0,0,0,-8.7622,-8.7636,-8.7741,-8.7739,-8.7737,-8.7788,-8.779,-8.7891,-8.776,-8.7749,-8.7748,-8.7742,-8.781,-8.7817,-8.7843,-8.7977,-8.798,-8.785,-8.7855,-8.7858,-8.786,0,0,0,0,0,0,0,-8.7627,-8.7542,-8.7771,-8.7737,-8.7734,-8.7847,-8.7849,-8.785,-8.7759,-8.7754,-8.7749,-8.7744,-8.7812,-8.782,-8.7827,-8.7974,0,0,-8.785,-8.7853,0,0,0,0,0,0,0,0,-8.7535,-8.754,-8.7771,-8.7772,-8.7773,-8.7847,-8.7849,-8.785,-8.7758,-8.7754,-8.775,-8.7746,-8.7814,-8.782,-8.7826,0,0,0,0,0,0,0,0,0,0,0,0,0,0,0,-8.7771,-8.7772,0,-8.7848,-8.7848,-8.7849,-8.7758,-8.7754,-8.7751,-8.7748,-8.7816,-8.7821,-8.7826,0,0,0,0,0,0,0,0,0,0,0,0,0,0,0,0,0,0,0,0,0,0,0,0,0,0,0,0,0,0,0,0,0,0,0,0,0,0,0,0,0,0,0,0,0,0,0,0,0,0,0,0,0,0,0,0,0,0,0,0,0,0,0,0,0,0,0,0,0]}]]]